Time,TemperatureF,DewpointF,PressureIn,WindDirection,WindDirectionDegrees,WindSpeedMPH,WindSpeedGustMPH,Humidity,HourlyPrecipIn,Conditions,Clouds,dailyrainin,SoftwareType,DateUTC
2013-03-10 00:10:00,27.6,12.0,30.08,NNW,339,10.0,-999.0,53,-99.99,,,0.00,weatherlink.com 1.10,2013-03-10 07:10:00,
2013-03-10 00:25:00,27.3,12.0,30.08,NNW,341,14.0,-999.0,52,-99.99,,,0.00,weatherlink.com 1.10,2013-03-10 07:25:00,
2013-03-10 00:40:00,26.0,14.0,30.08,WNW,300,5.0,-999.0,60,-99.99,,,0.00,weatherlink.com 1.10,2013-03-10 07:40:00,
2013-03-10 00:55:00,24.5,15.0,30.09,WNW,288,4.0,-999.0,67,-99.99,,,0.00,weatherlink.com 1.10,2013-03-10 07:55:00,
2013-03-10 01:10:00,23.6,15.0,30.09,WSW,255,6.0,-999.0,69,-99.99,,,0.00,weatherlink.com 1.10,2013-03-10 08:10:00,
2013-03-10 01:25:00,22.5,12.0,30.09,NNW,331,6.0,-999.0,64,-99.99,,,0.00,weatherlink.com 1.10,2013-03-10 08:25:00,
2013-03-10 01:40:00,21.3,11.0,30.09,NNW,334,7.0,-999.0,65,-99.99,,,0.00,weatherlink.com 1.10,2013-03-10 08:40:00,
2013-03-10 01:55:00,22.4,10.0,30.09,NW,307,4.0,-999.0,60,-99.99,,,0.00,weatherlink.com 1.10,2013-03-10 08:55:00,
2013-03-10 03:10:00,21.7,11.0,30.09,WNW,295,3.0,-999.0,64,-99.99,,,0.00,weatherlink.com 1.10,2013-03-10 09:10:00,
2013-03-10 03:25:00,22.5,13.0,30.09,West,260,7.0,-999.0,68,-99.99,,,0.00,weatherlink.com 1.10,2013-03-10 09:25:00,
2013-03-10 03:40:00,22.2,13.0,30.09,WSW,249,10.0,-999.0,67,-99.99,,,0.00,weatherlink.com 1.10,2013-03-10 09:40:00,
2013-03-10 03:55:00,21.6,13.0,30.09,WSW,256,5.0,-999.0,68,-99.99,,,0.00,weatherlink.com 1.10,2013-03-10 09:55:00,
2013-03-10 04:10:00,21.4,12.0,30.09,WSW,253,5.0,-999.0,68,-99.99,,,0.00,weatherlink.com 1.10,2013-03-10 10:10:00,
2013-03-10 04:25:00,21.2,12.0,30.09,WSW,252,8.0,-999.0,68,-99.99,,,0.00,weatherlink.com 1.10,2013-03-10 10:25:00,
2013-03-10 04:40:00,21.4,12.0,30.09,West,265,5.0,-999.0,67,-99.99,,,0.00,weatherlink.com 1.10,2013-03-10 10:40:00,
2013-03-10 04:55:00,21.3,12.0,30.10,West,272,6.0,-999.0,67,-99.99,,,0.00,weatherlink.com 1.10,2013-03-10 10:55:00,
2013-03-10 05:10:00,20.8,12.0,30.10,West,259,7.0,-999.0,68,-99.99,,,0.00,weatherlink.com 1.10,2013-03-10 11:10:00,
2013-03-10 05:25:00,20.6,12.0,30.11,West,268,6.0,-999.0,68,-99.99,,,0.00,weatherlink.com 1.10,2013-03-10 11:25:00,
2013-03-10 05:40:00,20.4,12.0,30.11,WSW,252,9.0,-999.0,69,-99.99,,,0.00,weatherlink.com 1.10,2013-03-10 11:40:00,
2013-03-10 05:55:00,20.2,12.0,30.11,WSW,256,11.0,-999.0,69,-99.99,,,0.00,weatherlink.com 1.10,2013-03-10 11:55:00,
2013-03-10 06:10:00,20.4,11.0,30.11,WSW,257,10.0,-999.0,67,-99.99,,,0.00,weatherlink.com 1.10,2013-03-10 12:10:00,
2013-03-10 06:25:00,20.1,11.0,30.11,WNW,286,8.0,-999.0,68,-99.99,,,0.00,weatherlink.com 1.10,2013-03-10 12:25:00,
2013-03-10 06:40:00,20.0,11.0,30.11,West,275,8.0,-999.0,68,-99.99,,,0.00,weatherlink.com 1.10,2013-03-10 12:40:00,
2013-03-10 06:55:00,19.6,11.0,30.10,West,268,5.0,-999.0,69,-99.99,,,0.00,weatherlink.com 1.10,2013-03-10 12:55:00,
2013-03-10 07:10:00,20.2,11.0,30.11,WSW,257,6.0,-999.0,68,-99.99,,,0.00,weatherlink.com 1.10,2013-03-10 13:10:00,
2013-03-10 07:25:00,19.9,11.0,30.11,WSW,246,10.0,-999.0,68,-99.99,,,0.00,weatherlink.com 1.10,2013-03-10 13:25:00,
2013-03-10 07:40:00,19.8,11.0,30.11,WSW,256,11.0,-999.0,68,-99.99,,,0.00,weatherlink.com 1.10,2013-03-10 13:40:00,
2013-03-10 07:55:00,20.7,12.0,30.11,West,264,6.0,-999.0,68,-99.99,,,0.00,weatherlink.com 1.10,2013-03-10 13:55:00,
2013-03-10 08:10:00,20.7,11.0,30.12,West,259,7.0,-999.0,67,-99.99,,,0.00,weatherlink.com 1.10,2013-03-10 14:10:00,
2013-03-10 08:25:00,21.4,12.0,30.12,WSW,246,6.0,-999.0,66,-99.99,,,0.00,weatherlink.com 1.10,2013-03-10 14:25:00,
2013-03-10 08:40:00,21.7,13.0,30.11,SW,234,7.0,-999.0,68,-99.99,,,0.00,weatherlink.com 1.10,2013-03-10 14:40:00,
2013-03-10 08:55:00,22.7,13.0,30.12,WSW,240,6.0,-999.0,66,-99.99,,,0.00,weatherlink.com 1.10,2013-03-10 14:55:00,
2013-03-10 09:10:00,23.4,14.0,30.11,SW,236,5.0,-999.0,67,-99.99,,,0.00,weatherlink.com 1.10,2013-03-10 15:10:00,
2013-03-10 09:25:00,24.3,15.0,30.11,SSW,213,5.0,-999.0,67,-99.99,,,0.00,weatherlink.com 1.10,2013-03-10 15:25:00,
2013-03-10 09:40:00,25.5,15.0,30.12,SSW,202,2.0,-999.0,65,-99.99,,,0.00,weatherlink.com 1.10,2013-03-10 15:40:00,
2013-03-10 09:55:00,26.9,15.0,30.11,South,170,4.0,-999.0,62,-99.99,,,0.00,weatherlink.com 1.10,2013-03-10 15:55:00,
2013-03-10 10:10:00,27.7,16.0,30.12,SSE,165,4.0,-999.0,61,-99.99,,,0.00,weatherlink.com 1.10,2013-03-10 16:10:00,
2013-03-10 10:25:00,28.3,17.0,30.12,South,175,3.0,-999.0,62,-99.99,,,0.00,weatherlink.com 1.10,2013-03-10 16:25:00,
2013-03-10 10:40:00,28.9,18.0,30.12,South,178,4.0,-999.0,63,-99.99,,,0.00,weatherlink.com 1.10,2013-03-10 16:40:00,
2013-03-10 10:55:00,29.0,18.0,30.11,South,190,4.0,-999.0,64,-99.99,,,0.00,weatherlink.com 1.10,2013-03-10 16:55:00,
2013-03-10 11:10:00,30.0,19.0,30.11,South,178,2.0,-999.0,64,-99.99,,,0.00,weatherlink.com 1.10,2013-03-10 17:10:00,
2013-03-10 11:25:00,30.9,22.0,30.11,South,180,4.0,-999.0,69,-99.99,,,0.00,weatherlink.com 1.10,2013-03-10 17:25:00,
2013-03-10 11:40:00,32.3,20.0,30.11,South,191,7.0,-999.0,61,-99.99,,,0.00,weatherlink.com 1.10,2013-03-10 17:40:00,
2013-03-10 11:55:00,33.1,19.0,30.11,SSE,163,6.0,-999.0,56,-99.99,,,0.00,weatherlink.com 1.10,2013-03-10 17:55:00,
2013-03-10 12:10:00,33.6,18.0,30.10,South,180,6.0,-999.0,54,-99.99,,,0.00,weatherlink.com 1.10,2013-03-10 18:10:00,
2013-03-10 12:25:00,33.8,19.0,30.10,South,188,8.0,-999.0,56,-99.99,,,0.00,weatherlink.com 1.10,2013-03-10 18:25:00,
2013-03-10 12:40:00,34.6,19.0,30.09,South,184,7.0,-999.0,53,-99.99,,,0.00,weatherlink.com 1.10,2013-03-10 18:40:00,
2013-03-10 12:55:00,34.7,19.0,30.09,SSE,163,6.0,-999.0,54,-99.99,,,0.00,weatherlink.com 1.10,2013-03-10 18:55:00,
2013-03-10 13:10:00,35.1,20.0,30.09,South,186,12.0,-999.0,54,-99.99,,,0.00,weatherlink.com 1.10,2013-03-10 19:10:00,
2013-03-10 13:25:00,35.6,19.0,30.09,South,182,10.0,-999.0,51,-99.99,,,0.00,weatherlink.com 1.10,2013-03-10 19:25:00,
2013-03-10 13:40:00,36.4,20.0,30.09,South,171,3.0,-999.0,52,-99.99,,,0.00,weatherlink.com 1.10,2013-03-10 19:40:00,
2013-03-10 13:55:00,37.2,19.0,30.09,SE,146,9.0,-999.0,49,-99.99,,,0.00,weatherlink.com 1.10,2013-03-10 19:55:00,
2013-03-10 14:10:00,37.8,20.0,30.08,South,184,6.0,-999.0,48,-99.99,,,0.00,weatherlink.com 1.10,2013-03-10 20:10:00,
2013-03-10 14:25:00,38.2,19.0,30.08,South,187,9.0,-999.0,46,-99.99,,,0.00,weatherlink.com 1.10,2013-03-10 20:25:00,
2013-03-10 14:40:00,38.7,19.0,30.08,SSE,150,10.0,-999.0,45,-99.99,,,0.00,weatherlink.com 1.10,2013-03-10 20:40:00,
2013-03-10 14:55:00,39.5,19.0,30.08,South,178,7.0,-999.0,44,-99.99,,,0.00,weatherlink.com 1.10,2013-03-10 20:55:00,
2013-03-10 15:10:00,40.4,21.0,30.08,South,176,6.0,-999.0,47,-99.99,,,0.00,weatherlink.com 1.10,2013-03-10 21:10:00,
2013-03-10 15:25:00,40.8,20.0,30.08,South,189,9.0,-999.0,44,-99.99,,,0.00,weatherlink.com 1.10,2013-03-10 21:25:00,
2013-03-10 15:40:00,41.2,21.0,30.09,SSE,159,5.0,-999.0,44,-99.99,,,0.00,weatherlink.com 1.10,2013-03-10 21:40:00,
2013-03-10 15:55:00,41.6,21.0,30.09,SSE,165,4.0,-999.0,44,-99.99,,,0.00,weatherlink.com 1.10,2013-03-10 21:55:00,
2013-03-10 16:10:00,41.9,22.0,30.08,South,171,5.0,-999.0,45,-99.99,,,0.00,weatherlink.com 1.10,2013-03-10 22:10:00,
2013-03-10 16:25:00,42.7,21.0,30.08,SSE,168,5.0,-999.0,43,-99.99,,,0.00,weatherlink.com 1.10,2013-03-10 22:25:00,
2013-03-10 16:40:00,43.0,21.0,30.08,SE,136,6.0,-999.0,42,-99.99,,,0.00,weatherlink.com 1.10,2013-03-10 22:40:00,
2013-03-10 16:55:00,42.9,21.0,30.09,South,170,4.0,-999.0,42,-99.99,,,0.00,weatherlink.com 1.10,2013-03-10 22:55:00,
2013-03-10 17:10:00,42.8,22.0,30.09,SSE,149,4.0,-999.0,44,-99.99,,,0.00,weatherlink.com 1.10,2013-03-10 23:10:00,
2013-03-10 17:25:00,42.4,21.0,30.08,SSE,162,4.0,-999.0,42,-99.99,,,0.00,weatherlink.com 1.10,2013-03-10 23:25:00,
2013-03-10 17:40:00,42.2,23.0,30.07,South,186,6.0,-999.0,46,-99.99,,,0.00,weatherlink.com 1.10,2013-03-10 23:40:00,
2013-03-10 17:55:00,42.0,23.0,30.07,SSE,164,3.0,-999.0,47,-99.99,,,0.00,weatherlink.com 1.10,2013-03-10 23:55:00,
2013-03-10 18:10:00,41.8,22.0,30.08,SSW,210,3.0,-999.0,46,-99.99,,,0.00,weatherlink.com 1.10,2013-03-11 00:10:00,
2013-03-10 18:25:00,41.3,21.0,30.08,SW,233,5.0,-999.0,44,-99.99,,,0.00,weatherlink.com 1.10,2013-03-11 00:25:00,
2013-03-10 18:40:00,39.5,23.0,30.07,West,259,3.0,-999.0,52,-99.99,,,0.00,weatherlink.com 1.10,2013-03-11 00:40:00,
2013-03-10 18:55:00,37.2,24.0,30.08,WSW,254,5.0,-999.0,60,-99.99,,,0.00,weatherlink.com 1.10,2013-03-11 00:55:00,
2013-03-10 19:10:00,37.0,23.0,30.08,West,273,4.0,-999.0,58,-99.99,,,0.00,weatherlink.com 1.10,2013-03-11 01:10:00,
2013-03-10 19:25:00,36.3,24.0,30.08,West,263,2.0,-999.0,61,-99.99,,,0.00,weatherlink.com 1.10,2013-03-11 01:25:00,
2013-03-10 19:40:00,35.6,24.0,30.08,WSW,248,4.0,-999.0,62,-99.99,,,0.00,weatherlink.com 1.10,2013-03-11 01:40:00,
2013-03-10 19:55:00,35.8,24.0,30.08,WSW,253,7.0,-999.0,62,-99.99,,,0.00,weatherlink.com 1.10,2013-03-11 01:55:00,
2013-03-10 20:10:00,35.9,24.0,30.08,West,272,4.0,-999.0,62,-99.99,,,0.00,weatherlink.com 1.10,2013-03-11 02:10:00,
2013-03-10 20:25:00,35.8,23.0,30.08,West,263,5.0,-999.0,60,-99.99,,,0.00,weatherlink.com 1.10,2013-03-11 02:25:00,
2013-03-10 20:40:00,35.9,22.0,30.07,WNW,290,4.0,-999.0,58,-99.99,,,0.00,weatherlink.com 1.10,2013-03-11 02:40:00,
2013-03-10 20:55:00,36.1,22.0,30.07,West,264,6.0,-999.0,57,-99.99,,,0.00,weatherlink.com 1.10,2013-03-11 02:55:00,
2013-03-10 21:10:00,35.8,22.0,30.07,West,271,6.0,-999.0,57,-99.99,,,0.00,weatherlink.com 1.10,2013-03-11 03:10:00,
2013-03-10 21:25:00,35.2,21.0,30.06,West,267,1.0,-999.0,57,-99.99,,,0.00,weatherlink.com 1.10,2013-03-11 03:25:00,
2013-03-10 21:40:00,34.1,21.0,30.07,West,269,3.0,-999.0,60,-99.99,,,0.00,weatherlink.com 1.10,2013-03-11 03:40:00,
2013-03-10 21:55:00,33.2,21.0,30.07,NNW,340,4.0,-999.0,62,-99.99,,,0.00,weatherlink.com 1.10,2013-03-11 03:55:00,
2013-03-10 22:10:00,33.5,20.0,30.07,West,272,3.0,-999.0,59,-99.99,,,0.00,weatherlink.com 1.10,2013-03-11 04:10:00,
2013-03-10 22:25:00,33.6,20.0,30.06,West,276,0.0,-999.0,57,-99.99,,,0.00,weatherlink.com 1.10,2013-03-11 04:25:00,
2013-03-10 22:40:00,35.2,19.0,30.06,West,273,6.0,-999.0,53,-99.99,,,0.00,weatherlink.com 1.10,2013-03-11 04:40:00,
2013-03-10 22:55:00,35.7,20.0,30.05,WSW,250,5.0,-999.0,53,-99.99,,,0.00,weatherlink.com 1.10,2013-03-11 04:55:00,
2013-03-10 23:10:00,37.6,19.0,30.04,WNW,288,6.0,-999.0,47,-99.99,,,0.00,weatherlink.com 1.10,2013-03-11 05:10:00,
2013-03-10 23:25:00,39.1,19.0,30.04,West,277,3.0,-999.0,44,-99.99,,,0.00,weatherlink.com 1.10,2013-03-11 05:25:00,
2013-03-10 23:40:00,39.4,17.0,30.03,West,273,4.0,-999.0,41,-99.99,,,0.00,weatherlink.com 1.10,2013-03-11 05:40:00,
2013-03-10 23:55:00,40.6,17.0,30.03,NW,317,10.0,-999.0,38,-99.99,,,0.00,weatherlink.com 1.10,2013-03-11 05:55:00,